Location: Dal�� Lhota
(48.7500°N, 14.0167°E)
Time: 16:29:18
(UTC+00:00)

Explorer 7 - Pass Details

Date: 08 August 2021
Orbit: 484 x 676 km, 50.3° (Epoch: 20 September)

Event Time Altitude Azimuth Distance (km) Brightness Sun altitude
Rises 00:46:01 0° 202° (SSW) 2,539 - -21.7°
Reaches altitude 10° 00:48:41 10° 183° (S) 1,658 - -21.5°
Maximum altitude 00:51:14 18° 139° (SE) 1,258 - -21.3°
Exits shadow 00:52:13 16° 119° (ESE) 1,328 8.7 -21.2°
Drops below altitude 10° 00:53:49 10° 96° (E) 1,674 9.5 -21.1°
Sets 00:56:31 0° 77° (ENE) 2,576 10.8 -20.9°
